Flag for Germany Weather past 2 weeks in Osterholz-Scharmbeck, Lower Saxony, Germany

Now
51 °F

Overcast.


Feels Like: 48 °F
Forecast: 43 / 49 °F
Wind: 7 mph from South

Location: Bremen

Current Time: Mar 28, 2015 at 5:10:20 PM

Latest Report: Mar 28, 2015 at 3:00 PM


Visibility: 9 mi

Pressure: 29.93 "Hg

Humidity: 58%

Dew point: 36 °F

Location of Osterholz-ScharmbeckLocation

Historic Weather in Osterholz-Scharmbeck — Graph

°F

Osterholz-Scharmbeck temperature yesterday

Maximum temperature yesterday: 45 °F (at 3:00 PM)
Minimum temperature yesterday: 40 °F (at 11:00 PM)
Average temperature yesterday: 43 °F

Past Weeks' High & Low Weather Summary

 TemperatureHumidityPressure
High60 °F (Mar 18, 4:00 PM)100% (Mar 19, 6:00 AM)30.46 "Hg (Mar 19, 6:00 AM)
Low28 °F (Mar 23, 7:00 AM)31% (Mar 19, 4:00 PM)29.66 "Hg (Mar 25, 5:00 PM)
Average43 °F77%30.14 "Hg
* Reported Mar 13 3:00 PM — Mar 28 3:00 PM, Osterholz-Scharmbeck, Weather by CustomWeather, © 2015

Note: Actual official high and low records may vary slightly from our data, if they occured in-between our weather recording intervals... More about our weather records

Advertising

Osterholz-Scharmbeck weather history for previous 24 hours

 ConditionsComfort  
Time TempWeatherWind HumidityBarometerVisibility
3:00 PM
Sat, Mar 28
51 °FOvercast.7 mph58%29.93 "Hg9 mi
2:00 PM50 °FOvercast.8 mph58%29.97 "Hg10 mi
1:00 PM49 °FPartly sunny.7 mph55%30.00 "Hg11 mi
12:00 PM48 °FScattered clouds.8 mph57%30.05 "Hg11 mi
11:00 AM47 °FPassing clouds.7 mph67%30.08 "Hg12 mi
9:00 AM41 °FFog.5 mph89%30.13 "Hg4 mi
8:00 AM39 °FFog.2 mph94%30.14 "Hg4 mi
7:00 AM38 °FLow clouds.2 mph94%30.16 "Hg6 mi
6:00 AM38 °FLow clouds.1 mph95%30.16 "Hg7 mi
5:00 AM39 °FOvercast.1 mph93%30.17 "Hg7 mi
3:00 AM38 °FOvercast.2 mph95%30.16 "Hg7 mi
2:00 AM40 °FOvercast.2 mph93%30.16 "Hg9 mi
1:00 AM40 °FOvercast.2 mph88%30.16 "Hg16 mi
12:00 AM41 °FOvercast.5 mph86%30.15 "Hg12 mi
11:00 PM
Fri, Mar 27
40 °FPassing clouds.5 mph90%30.14 "Hg6 mi
10:00 PM41 °FPassing clouds.6 mph83%30.13 "Hg7 mi
9:00 PM42 °FOvercast.7 mph81%30.11 "Hg7 mi
8:00 PM42 °FDrizzle. Low clouds.9 mph91%30.09 "Hg3 mi
7:00 PM43 °FDrizzle. Overcast.8 mph90%30.04 "Hg4 mi
6:00 PM44 °FRain. Overcast.7 mph85%30.01 "Hg6 mi
5:00 PM45 °FOvercast.9 mph79%29.97 "Hg16 mi
Weather by CustomWeather, © 2015

See weather overviewHow to use our weather pages